Starlink 32840

operational
NORAD ID: 63363 Int'l Des: 2025-063 Owner: SPXS Country: US Constellation: starlink
LEOCIRCULAR

Starlink 32840について

説明を読み込み中...

リアルタイム位置

3D地球を読み込み中...

次回通過

高度履歴

Altitude vs Time

uPlot chart will show altitude changes over time

軌道要素

1 63363U 25063A 25304.29283256 .00084262 00000-0 20873-2 0 9992
2 63363 53.1593 291.7090 0000845 89.9310 270.1792 15.39707734 34959
Epoch: Oct 31, 2025 • Age: 15 hours

現在のステータス

高度 450.3 km
速度 7.65 km/s
衛星直下点 42.42°N, 61.83°E
打ち上げ日 Mar 26, 2025
運用期間 0.5 years
タイプ internet

技術仕様

分類 Payload
質量 730.00 kg
乾燥質量 700.00 kg
総質量 730.00 kg
長さ 0.30 m
直径 4.10 m
スパン 29.00 m
形状 Box + pan
製造者 SPXS
バスタイプ Starlink V2M
フェーズステータス In Orbit
所有者/国 SPXS/US

大規模コンステレーション

Loading constellations...